Miscellaneous Local Product
Issued by NWS Hastings, NE

Home | Current Version | Previous Version | Graphics & Text | Print | Product List | Glossary On
Versions: 1 2 3 4 5 6 7 8 9 10 11 12 13 14 15 16 17 18 19 20 21 22 23 24 25 26 27 28 29 30 31 32 33 34 35 36 37 38 39 40 41 42 43 44 45 46 47 48 49 50
000
AXUS43 KGID 191102
MISGRI

GID CWA HOURLY WEATHER ROUNDUP
NATIONAL WEATHER SERVICE HASTINGS NE
500 AM CST FRI DEC 19 2014

NOTE: "FAIR" INDICATES FEW OR NO CLOUDS BELOW 12,000 FEET WITH NO
SIGNIFICANT WEATHER AND/OR OBSTRUCTIONS TO VISIBILITY.

...SOUTH CENTRAL NEBRASKA...

CITY           SKY/WX    TMP DP  RH WIND       PRES   REMARKS
GRAND ISLAND   CLOUDY    30  27  88 SW8       30.15F WCI  22
HASTINGS       CLOUDY    31  27  85 SW5       30.14F WCI  26
KEARNEY        CLOUDY    28  27  93 SW9       30.12F WCI  20
ORD            CLOUDY    27  26  96 SW7       30.11  FOG     WCI  19
YORK           CLOUDY    30  28  93 S6        30.17F WCI  24
AURORA         CLOUDY    31  29  93 SW6       30.16F WCI  25
LEXINGTON      FOG       27  26  96 SW8       30.11F VSB 3/4 WCI  19
HOLDREGE       CLOUDY    29  28  93 SW6       30.12F FOG     WCI  23
HEBRON         CLOUDY    30  27  90 S6        30.19F FOG     WCI  24

...NEBRASKA PANHANDLE...

CITY           SKY/WX    TMP DP  RH WIND       PRES   REMARKS
CHADRON        PTCLDY     9   6  88 SW6       30.04S WCI  -1
ALLIANCE       PTCLDY     4   1  88 SW8       30.03F WCI  -9
SCOTTSBLUFF    CLEAR      4   1  88 N3        30.06R
SIDNEY         CLEAR     18  13  80 W9        30.05F WCI   7

...WESTERN AND NORTH CENTRAL NEBRASKA...

CITY           SKY/WX    TMP DP  RH WIND       PRES   REMARKS
VALENTINE      PTCLDY    12   9  87 SW6       30.04F WCI   3
AINSWORTH      PTCLDY    15  13  92 SW5       30.04F WCI   7
ONEILL         FOG       28  28 100 S9        30.10S VSB 1   WCI  19
BROKEN BOW     FOG       25  24  96 SW9       30.09S VSB 1/2 WCI  15
IMPERIAL       CLEAR     16  12  84 W5        30.08F FOG     WCI   9
NORTH PLATTE   PTCLDY    15  10  80 CALM      30.08F HAZE
MCCOOK         FOG       18  16  92 W3        30.11F VSB 1/4

...EASTERN NEBRASKA...

CITY           SKY/WX    TMP DP  RH WIND       PRES   REMARKS
NORFOLK        CLOUDY    30  25  81 SW9       30.15F WCI  22
SO SIOUX CITY  CLOUDY    31  28  89 S7        30.20S FOG     WCI  24
TEKAMAH        CLOUDY    31  29  92 S7        30.21F FOG     WCI  24
COLUMBUS       CLOUDY    30  25  80 SW8       30.18F WCI  23
ALBION         CLOUDY    29  26  86 SW10      30.15S WCI  20
OMAHA EPPLEY   CLOUDY    31  28  89 SE6       30.23F WCI  25
OFFUTT AFB     CLOUDY    30  28  92 SE5       30.21F WCI  25
MILLARD        CLOUDY    32  29  90 SE5       30.22F FOG     WCI  27
LINCOLN        CLOUDY    31  28  89 S3        30.21F FOG
NEBRASKA CITY  CLOUDY    30  30 100 S3        30.22F FOG
BEATRICE       CLOUDY    30  28  91 S3        30.21S
FALLS CITY     CLOUDY    29  26  89 SW5       30.24F WCI  24

...NORTHERN KANSAS...

CITY           SKY/WX    TMP DP  RH WIND       PRES   REMARKS
GOODLAND       CLEAR     25  21  85 W9        30.08F WCI  15
HILL CITY      CLOUDY    33  30  88 CALM      30.14F
NORTON         CLOUDY    30  28  93 SW8       30.11F FOG     WCI  23
PHILLIPSBURG   CLOUDY    34  32  93 SE5       30.15F WCI  30
SMITH CENTER   CLOUDY    28  28 100 SE3       30.17F FOG
BELOIT         CLOUDY    28  28 100 E6        30.18F WCI  22
HAYS           CLOUDY    32  25  74 SE3       30.15F
RUSSELL        CLOUDY    31  30  96 S7        30.15F WCI  24
CONCORDIA      CLOUDY    29  28  96 S6        30.19F WCI  23
SALINA         FOG       30  28  92 SE5       30.22F VSB 3/4 WCI  25
TOPEKA         CLOUDY    31  29  92 VRB3      30.25F



USA.gov is the U.S. government's official web portal to all federal, state and local government web resources and services.